Location: Unspecified
(33.6682°S, 0.0000°E)
Time: 11:18:30
(UTC+00:00)

Vanguard 2 Rocket - Pass Details

Date: 26 June 2019
Orbit: 554 x 3326 km, 32.9° (Epoch: 15 July)

Event Time Altitude Azimuth Distance (km) Brightness Sun altitude
Rises 11:47:00 0° 261° (W) 5,913 10.9 32.8°
Reaches altitude 10° 11:51:36 10° 262° (W) 4,452 10.4 32.9°
Maximum altitude 12:02:34 72° 343° (NNW) 1,310 8.7 33.0°
Drops below altitude 10° 12:08:37 10° 67° (ENE) 2,551 9.6 33.0°
Sets 12:10:37 0° 69° (ENE) 3,282 10.0 32.9°
